Theta_e
336 342 349 350 349 349 348 346 345 345 343 343 343 342 342 342 343 346 344 343 342 343 344 344 343 341 339 339 341 340 339 338 338 339 341 341 339 339 339 340 338 332 336
338 342 347 349 349 348 347 346 345 345 342 342 341 341 341 342 343 344 344 343 342 340 340 343 341 338 338 337 338 337 337 337 339 339 339 339 339 338 337 338 337 332 336
339 343 346 348 349 348 346 346 345 344 341 341 340 340 340 342 342 344 343 343 341 339 338 339 337 338 336 335 335 335 335 335 337 337 336 330 333 338 338 336 336 336 335
340 341 344 346 348 347 346 345 344 343 341 340 339 339 341 343 342 344 342 343 341 337 337 337 337 336 335 334 333 333 334 334 337 335 327 329 331 336 335 336 336 334 334
337 342 343 345 348 347 346 345 344 342 342 340 339 338 339 343 341 344 343 342 340 337 337 336 336 335 335 334 333 333 333 335 336 330 326 326 326 333 334 334 333 333 333
339 342 343 346 348 347 346 344 343 342 341 339 338 337 338 342 342 343 343 341 339 335 335 335 335 334 333 333 332 331 332 335 334 324 326 329 328 333 334 333 332 332 333
338 341 343 344 346 346 346 344 343 342 341 339 337 336 337 339 342 341 338 339 339 335 335 334 333 333 333 332 330 330 332 333 325 324 325 325 328 334 334 333 333 332 331
334 338 341 338 341 343 344 344 342 342 341 339 336 336 335 336 336 336 337 336 338 335 335 333 332 332 331 331 329 329 330 329 326 324 324 326 333 334 333 332 331 331 332
331 336 339 340 339 337 340 340 340 341 340 339 338 337 335 333 334 335 333 334 335 336 335 333 332 330 330 329 328 327 327 327 322 324 327 324 332 333 332 331 331 332 332
328 330 333 338 339 340 338 334 336 337 337 337 335 332 330 330 330 331 331 332 334 335 336 334 332 330 329 327 325 325 324 324 321 324 325 325 333 331 331 331 331 333 332
326 327 329 334 338 338 339 334 331 332 333 332 329 327 325 327 327 326 328 331 334 333 334 334 332 330 328 326 325 323 322 319 319 322 324 329 331 329 329 328 329 331 332
322 324 326 330 331 336 338 335 336 335 333 331 329 326 327 326 326 327 323 328 330 329 330 331 333 330 325 320 318 322 318 318 318 320 323 328 328 327 327 326 328 329 331
322 324 324 327 330 333 336 337 336 336 333 332 329 328 327 326 323 323 322 322 321 321 323 324 322 321 320 320 320 319 319 319 317 318 321 325 326 326 326 326 327 327 329
321 323 323 325 327 330 332 336 333 334 334 332 331 329 326 323 323 322 321 320 320 319 320 319 319 320 321 321 320 319 319 318 317 318 316 321 324 325 326 327 327 327 328
318 321 322 322 325 328 331 332 332 332 333 331 329 329 326 323 321 321 321 320 320 320 320 320 320 320 320 320 319 319 318 318 318 318 317 317 322 325 326 328 328 328 328
320 320 323 321 323 325 328 329 330 329 331 330 328 327 326 323 321 320 319 319 318 319 319 319 319 318 318 319 318 318 317 317 318 319 319 317 321 324 326 328 329 329 329
323 322 323 323 322 322 324 326 327 327 328 329 326 326 325 324 321 320 318 317 317 318 318 318 318 318 317 318 317 318 319 320 320 319 320 320 318 320 323 326 328 329 330
326 324 323 326 323 321 321 324 324 325 325 325 325 325 324 324 322 319 318 317 317 317 317 318 317 316 316 316 316 316 318 320 319 318 318 319 319 319 319 324 326 328 329
326 326 326 324 324 323 322 323 324 324 324 324 324 324 324 324 324 321 319 319 318 316 316 318 317 316 315 315 317 317 318 317 317 318 317 318 318 319 319 320 321 322 328
324 326 328 327 325 325 324 322 323 323 324 325 324 324 323 324 323 322 321 321 320 318 317 318 317 317 316 316 317 317 316 315 315 315 316 317 317 319 319 319 316 316 320
322 324 326 327 327 325 324 322 321 321 323 324 325 324 324 323 324 322 322 322 322 320 319 319 318 316 315 317 315 315 315 316 314 314 316 316 316 318 318 319 318 317 317
320 322 324 326 327 327 326 325 324 323 323 325 326 325 325 323 323 323 323 322 323 322 320 320 319 317 316 317 314 312 308 310 314 313 314 315 315 318 318 319 319 320 318
315 319 323 325 326 328 328 327 325 324 323 323 324 324 325 325 323 322 323 323 323 323 321 321 320 318 316 316 318 313 306 303 307 311 312 314 315 316 317 318 318 319 319
314 316 321 324 325 327 328 327 326 323 321 322 323 324 324 326 324 323 322 323 323 323 322 321 322 321 318 316 315 319 315 311 305 304 311 312 315 315 316 316 316 317 317
314 314 318 321 322 324 327 328 327 325 325 325 323 322 323 324 325 324 323 322 322 323 323 321 321 321 321 319 318 316 317 315 313 308 304 309 312 314 315 316 316 315 315
311 313 315 316 316 319 322 325 327 326 326 325 324 322 322 323 324 325 325 323 322 322 322 322 322 321 321 320 320 319 317 315 314 311 306 307 308 312 313 315 314 313 312
Wind_Speed
10 9 10 12 14 14 14 14 14 13 14 14 14 14 14 14 13 12 16 15 14 15 18 18 19 18 18 17 18 18 19 19 19 19 20 20 21 21 22 19 17 15 20
13 11 10 11 13 14 14 13 13 12 14 14 13 13 13 13 11 13 17 15 14 16 16 17 17 16 16 15 15 14 14 14 16 16 16 16 18 20 20 19 16 18 19
15 11 10 11 13 13 13 12 11 11 13 13 13 13 12 11 12 14 16 15 13 15 15 15 15 15 15 14 13 11 10 9 5 16 13 6 10 20 19 19 19 19 20
14 11 10 10 12 13 12 11 11 11 12 13 13 13 11 11 11 11 16 15 13 14 14 14 14 14 14 14 11 8 8 7 6 11 7 7 11 17 17 18 19 18 18
9 12 11 10 11 12 11 11 11 11 10 12 12 12 12 12 10 13 16 14 13 13 13 13 13 13 13 12 9 7 9 11 11 11 7 7 6 14 16 17 16 16 15
13 12 11 10 11 11 12 11 10 10 11 11 11 11 11 10 12 12 14 14 12 12 12 12 12 11 11 10 6 6 7 9 4 8 7 9 9 14 15 15 15 15 14
13 11 9 10 9 11 11 12 10 11 11 11 10 10 9 9 11 11 10 12 12 10 11 10 11 10 10 9 6 6 10 12 7 7 7 6 8 13 13 13 13 13 13
11 10 10 8 9 10 11 11 10 11 11 12 11 8 9 8 8 8 10 7 10 10 10 9 9 9 9 8 5 6 9 9 6 8 7 6 9 11 11 11 11 11 10
8 10 10 8 8 8 9 10 10 10 10 10 10 8 7 8 7 7 8 8 6 7 10 9 8 8 8 7 4 4 6 8 4 4 7 4 7 9 9 9 9 8 8
8 6 9 10 9 7 6 8 9 10 10 10 10 10 7 7 7 7 6 6 6 5 9 7 7 7 7 5 2 4 8 9 2 6 5 3 5 7 7 7 7 9 9
7 7 6 9 11 10 9 7 7 9 9 9 8 9 8 5 5 6 4 7 7 6 6 7 7 7 6 5 2 5 6 3 3 4 4 3 4 5 5 5 5 7 7
8 7 7 8 7 8 8 10 7 7 5 5 6 6 5 6 5 5 6 7 7 5 6 6 6 7 7 4 3 6 2 1 2 4 3 4 1 2 3 3 3 4 6
7 6 8 7 8 9 6 6 4 5 5 5 8 7 6 5 5 4 3 3 3 5 3 4 4 4 6 5 5 4 2 1 2 3 6 6 3 2 1 1 1 2 4
10 9 8 8 7 8 7 6 5 6 5 5 6 9 5 3 4 4 4 5 5 4 5 5 4 5 4 3 2 2 2 2 2 2 5 9 7 5 4 3 3 1 1
9 10 9 8 8 7 10 7 5 7 7 7 5 7 5 5 5 5 5 5 5 5 4 4 4 4 3 4 4 4 4 4 3 1 3 9 9 8 7 6 5 4 3
9 9 9 8 7 7 8 9 8 6 9 8 6 6 8 5 5 5 5 5 5 5 5 5 5 5 5 4 4 5 5 4 5 5 3 5 10 9 9 9 8 7 6
7 9 11 11 8 8 7 7 7 5 6 8 6 8 9 7 6 6 5 5 5 5 6 5 4 4 4 4 5 5 5 6 5 5 5 4 5 9 10 11 10 10 9
9 10 10 11 12 9 8 6 4 5 4 4 5 5 9 10 8 7 5 5 5 5 5 4 4 3 4 4 4 5 5 6 7 6 5 4 4 5 8 11 11 11 10
10 10 10 11 13 13 9 7 7 7 5 5 5 5 9 11 11 6 5 5 6 5 5 4 5 4 4 5 5 5 5 5 6 5 7 6 7 5 4 10 12 10 10
9 10 12 12 13 12 9 6 6 5 6 7 8 8 9 10 11 9 6 6 6 5 5 4 5 5 4 5 4 5 5 5 5 5 6 5 6 7 6 5 5 5 10
9 10 11 13 13 11 10 10 9 10 9 9 9 12 12 11 12 11 8 9 8 9 9 7 5 6 5 4 2 2 4 6 7 6 6 5 6 6 6 6 4 4 5
10 9 9 11 12 13 10 9 9 9 9 10 9 10 12 13 13 13 12 10 11 8 9 9 9 5 4 6 4 2 3 4 8 7 5 6 8 5 6 6 6 6 6
10 10 11 10 11 12 13 8 8 7 7 9 10 11 13 15 14 15 15 13 12 11 11 11 10 12 8 5 9 5 3 5 2 3 6 5 6 5 5 6 7 7 6
8 7 8 10 10 10 12 11 14 12 13 13 11 11 12 15 16 16 16 16 14 11 13 13 11 10 8 9 3 10 5 4 4 2 2 5 6 6 6 5 6 7 7
6 3 2 6 8 9 12 14 12 13 11 10 9 10 13 13 17 17 17 16 16 12 14 14 13 14 11 10 9 5 10 5 4 3 3 3 2 4 5 5 6 6 7
7 7 6 5 5 5 6 10 15 16 14 11 11 9 9 10 11 16 17 17 16 16 16 15 15 16 15 14 10 11 8 9 10 7 4 4 5 5 5 5 5 5 5
Wind_Direction
114 121 123 120 120 111 104 99 99 96 94 90 90 91 91 91 84 89 93 88 86 79 80 75 76 76 77 74 78 78 78 84 85 74 69 73 74 71 70 69 69 68 65
123 122 122 122 121 116 109 106 100 100 98 95 95 95 98 98 87 86 94 87 93 87 82 75 77 81 77 78 81 84 87 94 103 94 75 67 75 73 73 67 67 73 72
114 124 127 119 122 117 111 106 104 101 99 99 98 98 104 96 93 97 100 97 93 90 91 89 87 83 82 83 83 73 58 54 64 98 89 81 73 71 68 65 66 63 65
124 141 129 122 125 119 116 112 110 105 105 104 102 104 112 108 89 97 105 97 94 94 90 91 89 88 86 85 85 75 46 26 30 93 84 69 70 72 74 69 62 66 64
123 122 122 131 131 128 124 116 112 110 110 107 110 111 114 101 100 86 104 102 93 92 95 95 94 93 91 90 88 60 18 359 47 62 67 72 65 75 72 72 67 63 62
107 108 122 130 138 136 128 124 122 117 110 106 107 116 122 96 90 90 94 105 101 100 98 99 97 96 96 92 80 36 6 344 112 93 78 66 77 82 82 81 80 76 70
116 122 125 134 140 143 139 133 133 125 114 111 109 117 124 115 106 96 103 84 104 104 106 105 102 99 95 90 67 15 4 358 79 81 82 80 84 83 82 82 81 75 72
127 133 132 135 139 144 144 140 135 131 127 122 121 120 129 129 120 119 102 103 93 118 111 110 105 103 97 91 63 7 1 349 93 94 89 90 93 91 86 83 77 71 64
126 130 136 149 145 145 149 144 139 135 129 127 126 122 116 134 135 129 133 117 92 117 124 120 113 109 103 92 64 354 331 337 59 115 104 89 94 92 89 84 72 58 58
134 168 153 151 151 154 152 149 143 138 136 132 122 120 107 138 146 153 141 145 123 116 133 134 126 117 115 107 82 322 329 337 81 92 81 73 86 93 86 74 60 43 60
150 178 179 156 165 166 153 153 143 142 138 130 126 138 144 151 178 162 145 146 132 133 141 153 147 137 135 140 189 258 289 280 69 95 104 78 117 110 99 76 52 39 56
167 186 180 156 178 150 159 153 158 151 156 167 161 173 199 175 153 171 124 132 143 154 152 157 166 175 187 192 202 244 248 230 86 103 118 117 155 135 108 80 31 34 54
175 180 179 178 169 158 147 161 167 166 178 181 178 179 220 143 144 144 138 160 164 191 189 177 187 213 226 219 193 223 158 257 187 156 149 164 200 228 195 172 322 15 50
181 197 186 182 182 159 153 178 174 167 180 192 188 181 189 160 162 179 165 189 186 191 214 194 199 228 214 271 282 251 208 256 257 152 171 175 200 220 231 227 234 241 87
190 193 187 184 184 178 168 180 191 177 176 191 208 177 169 180 175 202 186 186 188 189 218 201 212 187 234 229 227 240 231 235 269 261 174 186 199 219 228 234 232 221 194
181 185 184 198 201 197 190 176 199 181 177 181 204 175 180 184 186 189 196 194 197 198 204 204 202 191 204 202 228 226 239 241 223 224 202 202 202 211 225 232 233 227 210
185 180 184 183 195 200 201 208 188 206 184 188 184 178 179 195 188 194 191 188 200 208 207 207 222 197 198 201 213 219 211 234 239 233 229 206 206 211 215 227 229 225 220
181 184 179 187 190 198 197 198 205 202 196 192 195 184 180 191 192 191 195 197 198 194 193 193 201 217 223 211 205 221 203 214 218 228 240 224 204 207 214 215 222 224 222
188 183 188 185 187 194 201 193 198 203 193 206 192 193 195 193 202 182 187 196 194 192 190 200 210 186 203 226 215 220 211 211 215 208 216 224 219 222 193 208 207 212 221
194 190 190 190 190 189 195 203 203 195 206 203 204 204 195 198 196 201 188 196 187 181 198 200 197 209 196 204 216 221 219 233 226 214 211 215 221 218 210 193 194 200 212
197 192 191 191 192 183 196 201 205 210 207 211 211 211 200 196 200 201 206 199 193 195 199 196 196 198 219 216 192 257 255 243 237 215 208 210 222 214 200 203 182 192 200
198 200 198 201 192 194 199 207 209 211 214 217 214 213 209 202 199 202 204 207 201 199 198 201 196 203 202 190 186 155 263 284 244 222 198 200 212 201 194 200 192 193 179
202 196 197 200 203 202 208 200 213 216 222 217 215 215 210 206 203 202 204 206 206 199 204 205 200 199 205 209 196 167 195 222 259 228 213 198 202 193 187 188 195 201 189
234 214 199 198 206 202 198 207 212 216 221 227 220 221 215 208 209 208 206 206 207 204 205 205 203 202 193 205 199 222 223 163 196 289 284 220 199 197 194 195 192 194 191
23 40 245 215 204 205 207 206 214 221 230 234 230 223 218 216 213 210 210 209 211 209 211 204 203 203 204 205 204 190 221 225 217 202 238 248 248 206 202 197 190 188 193
11 24 7 326 276 267 239 217 217 223 229 234 231 228 219 218 216 217 216 214 215 214 212 208 205 205 206 209 207 206 195 198 215 208 200 206 196 232 208 204 192 189 180